This demonstration page uses our WeatherBlox Daily Observations layout. Learn more.

Hourly Observations for May 22, 2019

Temp ( °F °C ) Dew Point ( °F °C ) Humidity (%) Winds ( mph kmh ) Pressure ( in mb ) Visibility ( mi km ) Precip ( " mm )
12:54 am 00:54 Clear 50 10 47 8.3 89 89 S 10 17 29.34 994 10 16.0934 0 0
1:54 am 01:54 Mostly Clear 52 11.1 48 8.9 86 86 SSW 16 26 29.36 994 10 16.0934 0 0
2:21 am 02:21 Mostly Cloudy 53 11.7 48 8.9 83 83 SSW 17 28 29.37 995 10 16.0934 0 0
2:39 am 02:39 Cloudy 53 11.7 48 8.9 83 83 SSW 18 30 29.38 995 10 16.0934 0 0
2:54 am 02:54 Cloudy 53 11.7 48 8.9 83 83 SSW 15 24 29.38 995 10 16.0934 0 0
3:54 am 03:54 Cloudy 52 11.1 47 8.3 83 83 SW 21 33 29.41 996 10 16.0934 0 0
4:14 am 04:14 Cloudy 52 11.1 46 7.8 80 80 SSW 18 30 29.43 996 10 16.0934 0 0
4:54 am 04:54 Cloudy 50 10 45 7.2 83 83 SW 24 39 29.45 997 10 16.0934 0 0
5:06 am 05:06 Cloudy 50 10 44 6.7 80 80 SSW 24 39 29.46 998 10 16.0934 0 0
5:14 am 05:14 Cloudy 50 10 43 6.1 77 77 SW 23 37 29.46 998 10 16.0934 0 0
5:52 am 05:52 Cloudy 48 9 43 6 82 82 SW 23 37 29.5 999 10 16.0934 0 0
5:54 am 05:54 Cloudy 48 8.9 42 5.6 80 80 SW 17 28 29.48 998 10 16.0934 0 0
6:54 am 06:54 Mostly Cloudy 46 7.8 40 4.4 79 79 SW 18 30 29.53 1000 10 16.0934 0 0
7:03 am 07:03 Partly Cloudy 47 8.3 40 4.4 77 77 SW 20 31 29.55 1001 10 16.0934 0 0
7:54 am 07:54 Sunny 48 8.9 40 4.4 74 74 SW 22 35 29.55 1001 10 16.0934 0 0
8:54 am 08:54 Sunny 51 10.6 41 5 69 69 SW 17 28 29.59 1002 10 16.0934 0 0
9:54 am 09:54 Sunny 54 12.2 42 5.6 64 64 SW 17 28 29.62 1003 10 16.0934 0 0
10:54 am 10:54 Mostly Sunny 57 13.9 42 5.6 58 58 SW 20 31 29.64 1004 10 16.0934 0 0
11:54 am 11:54 Sunny 60 15.6 43 6.1 53 53 WSW 20 31 29.66 1004 10 16.0934 0 0
12:54 pm 12:54 Sunny 64 17.8 44 6.7 48 48 SW 18 30 29.68 1005 10 16.0934 0 0
1:54 pm 13:54 Mostly Sunny 65 18.3 45 7.2 49 49 SW 23 37 29.69 1005 10 16.0934 0 0
2:54 pm 14:54 Sunny 67 19.4 44 6.7 44 44 WSW 21 33 29.71 1006 10 16.0934 0 0
3:54 pm 15:54 Sunny 69 20.6 45 7.2 42 42 WSW 20 31 29.72 1007 10 16.0934 0 0
4:54 pm 16:54 Mostly Sunny 69 20.6 44 6.7 41 41 WSW 16 26 29.75 1007 10 16.0934 0 0
5:54 pm 17:54 Partly Cloudy 67 19.4 44 6.7 44 44 WSW 15 24 29.78 1009 10 16.0934 0 0
6:54 pm 18:54 Sunny 66 18.9 45 7.2 47 47 W 13 20 29.81 1010 10 16.0934 0 0
7:54 pm 19:54 Sunny 64 17.8 46 7.8 52 52 W 8 13 29.83 1010 10 16.0934 0 0
8:54 pm 20:54 Clear 61 16.1 46 7.8 58 58 W 5 7 29.86 1011 10 16.0934 0 0
9:54 pm 21:54 Clear 54 12.2 46 7.8 75 75 Calm 29.91 1013 10 16.0934 0 0
10:54 pm 22:54 Clear 53 11.7 46 7.8 77 77 Calm 29.94 1014 10 16.0934 0 0
11:54 pm 23:54 Clear 52 11.1 45 7.2 77 77 Calm 29.96 1014 10 16.0934 0 0

Powered by AerisWeather